EW8178 Weather Reports


Display with metric or nautical units.
time (UTC)temp
F
wind
direction
speed
MPH
gust
MPH
rain 1hr
in
rain 24hr
in
rain mn
in
humidity
%
barometer
mb
20260506143029 49 284 3.0 13.0 0.06 0.94 0.79 5 1003.1
20260506141531 48 291 1.0 13.0 0.06 0.94 0.79 5 1003.3
20260506140021 48 254 3.0 11.0 0.03 0.91 0.76 6 1003.2
20260506134545 48 237 3.0 16.0 0.02 0.88 0.73 6 1003.4
20260506133044 47 229 5.0 10.0 0.03 0.87 0.72 6 1003.7
20260506131533 48 284 5.0 14.0 0.06 0.87 0.72 6 1003.8
20260506130028 49 244 3.0 12.0 0.09 0.87 0.72 5 1003.9
20260506124525 49 221 1.0 8.0 0.09 0.87 0.72 5 1003.6
20260506123021 48 317 3.0 8.0 0.08 0.87 0.69 6 1003.7
20260506121513 48 192 2.0 7.0 0.05 0.83 0.65 6 1003.6
20260506120021 48 149 4.0 10.0 0.02 0.81 0.63 7 1003.8
20260506114506 48 265 3.0 18.0 0.02 0.80 0.62 7 1003.8
20260506113101 48 196 4.0 17.0 0.02 0.81 0.61 7 1003.6
20260506111552 48 345 3.0 12.0 0.02 0.81 0.61 7 1003.6
20260506110048 48 28 3.0 19.0 0.02 0.80 0.61 7 1003.7
20260506104548 48 221 5.0 15.0 0.03 0.80 0.61 7 1003.9
20260506103040 48 223 3.0 10.0 0.06 0.80 0.60 7 1004.0
20260506101532 48 315 2.0 12.0 0.12 0.79 0.59 9 1004.2
20260506100028 47 181 2.0 7.0 0.16 0.78 0.57 10 1004.3
20260506094524 47 130 1.0 5.0 0.19 0.77 0.56 12 1004.3
20260506093025 47 250 0.0 2.0 0.19 0.73 0.54 11 1004.3
20260506091548 47 38 0.0 7.0 0.17 0.67 0.47 12 1004.3
20260506090041 47 212 0.0 3.0 0.17 0.62 0.43 12 1004.4
20260506084538 47 258 0.0 7.0 0.18 0.57 0.39 13 1004.2
20260506083030 47 273 2.0 9.0 0.18 0.54 0.35 16 1004.2
20260506081526 47 284 1.0 9.0 0.17 0.50 0.30 17 1003.9
20260506073010 49 129 1.0 7.0 0.16 0.35 0.16 8 1003.8
20260506071505 48 191 0.0 5.0 0.13 0.33 0.13 8 1003.9
20260506061545 47 207 0.0 4.0 0.02 0.20 0.20 13 1003.9
20260506044524 47 260 1.0 3.0 0.00 0.17 0.17 18 1003.8
20260506043009 46 252 2.0 7.0 0.00 0.17 0.17 23 1003.7
20260506041505 47 225 0.0 2.0 0.00 0.17 0.17 24 1003.8
20260506040005 47 227 2.0 4.0 0.00 0.17 0.17 23 1003.8
20260506034602 47 230 3.0 10.0 0.00 0.17 0.17 22 1003.9
20260506033108 47 284 2.0 9.0 0.00 0.17 0.17 21 1003.8
20260506031552 47 280 2.0 7.0 0.00 0.17 0.17 20 1003.9
20260506030051 47 243 4.0 13.0 0.00 0.17 0.17 18 1003.9
20260506024539 47 256 4.0 10.0 0.00 0.17 0.17 20 1004.0
20260506023032 47 242 3.0 12.0 0.00 0.17 0.17 21 1004.1
20260506021528 47 261 5.0 15.0 0.00 0.17 0.17 21 1004.3
20260506020025 47 225 5.0 11.0 0.00 0.17 0.17 20 1004.2
20260506014518 47 208 6.0 16.0 0.00 0.17 0.17 14 1004.5
20260506013015 47 267 5.0 14.0 0.00 0.17 0.17 12 1004.3
20260506011523 47 247 6.0 15.0 0.00 0.17 0.17 10 1004.0
20260506010004 47 213 4.0 11.0 0.00 0.17 0.17 10 1003.9
20260506004600 48 263 2.0 12.0 0.00 0.17 0.17 9 1004.0
20260506003056 47 217 5.0 13.0 0.00 0.17 0.17 9 1004.0
20260506001548 48 205 6.0 16.0 0.00 0.17 0.17 9 1004.1
20260506000053 47 227 7.0 15.0 0.00 0.17 0.17 9 1004.1
20260505234540 47 283 5.0 13.0 0.00 0.17 0.17 9 1004.2
20260505233034 47 236 5.0 14.0 0.00 0.17 0.17 9 1004.6
20260505231537 47 219 5.0 15.0 0.00 0.17 0.17 9 1004.7
20260505230026 47 132 4.0 13.0 0.00 0.17 0.17 9 1004.8
20260505224519 47 300 4.0 13.0 0.00 0.17 0.17 10 1004.7
20260505223017 47 300 4.0 13.0 0.00 0.17 0.17 10 1004.7
20260505221508 47 242 3.0 15.0 0.00 0.17 0.17 10 1004.8
20260505220003 47 166 5.0 14.0 0.00 0.17 0.17 10 1005.0
20260505214603 47 209 4.0 13.0 0.00 0.17 0.17 10 1005.0
20260505213024 47 300 2.0 13.0 0.00 0.17 0.17 10 1005.1
20260505211520 47 188 5.0 17.0 0.01 0.17 0.17 10 1005.2
20260505210013 47 265 7.0 14.0 0.01 0.17 0.17 10 1005.1
20260505204509 47 305 2.0 11.0 0.01 0.17 0.17 10 1005.1
20260505203005 47 190 3.0 16.0 0.01 0.17 0.17 10 1005.1
20260505201501 47 250 3.0 13.0 0.00 0.17 0.17 10 1005.2
20260505200057 47 278 4.0 13.0 0.00 0.17 0.17 11 1005.0
20260505194523 47 259 3.0 12.0 0.00 0.17 0.17 11 1004.9
20260505193030 47 242 4.0 13.0 0.00 0.17 0.17 11 1004.9
20260505191514 47 221 4.0 13.0 0.01 0.17 0.17 12 1004.8
20260505190007 47 171 3.0 14.0 0.01 0.17 0.17 12 1004.7
20260505184502 47 332 3.0 9.0 0.02 0.17 0.17 12 1004.7
20260505183101 47 204 3.0 10.0 0.02 0.17 0.17 13 1004.5
20260505181553 47 237 2.0 11.0 0.01 0.16 0.16 14 1004.6
20260505180052 47 286 2.0 9.0 0.02 0.16 0.16 14 1004.5
20260505174551 47 261 4.0 13.0 0.02 0.15 0.15 15 1004.5
20260505173049 47 289 4.0 14.0 0.03 0.15 0.15 16 1004.4
20260505171547 47 223 5.0 12.0 0.05 0.15 0.15 18 1004.4
20260505170043 47 271 3.0 9.0 0.05 0.14 0.14 18 1004.5
20260505164554 47 269 4.0 12.0 0.05 0.13 0.13 20 1004.5
20260505163038 47 184 0.0 9.0 0.04 0.12 0.12 22 1004.7
20260505161506 48 239 2.0 7.0 0.03 0.10 0.10 23 1004.6
20260505153004 48 263 1.0 8.0 0.02 0.08 0.08 26 1004.6
20260505151600 48 203 3.0 9.0 0.01 0.07 0.07 24 1004.6